Preview of NWS' New Version of Forecast
This preview is not operational and should not be used for support decisions.

Regional Weather Roundup (RWR)

Issued by Gray - Portland, ME (GYX)

                            
000
ASUS41 KGYX 151510
RWRGYX
WEATHER ROUNDUP FOR MAINE AND NEW HAMPSHIRE
NATIONAL WEATHER SERVICE GRAY ME
1100 AM EDT MON OCT 15 2018

MEZ002-005-006-010-012-015-018-020-021-024-026-027-029-151600-
MAINE
  
CITY           SKY/WX    TMP DP  RH WIND       PRES   REMARKS
PORTLAND       CLOUDY    52  46  80 S5        30.12F                  
SANFORD        CLOUDY    46  42  86 S3        30.13F                  
BAR HARBOR     FAIR      57  47  69 S13       30.15F                  
WISCASSET      FAIR      56  48  74 S8        30.13F                  
ROCKLAND       FAIR      57  48  72 S8        30.13F                  
FRYEBURG       CLOUDY    43  39  86 CALM      30.11F                  
LEWISTONAUBURN PTSUNNY   50  43  77 S7        30.12F                  
AUGUSTA        FAIR      53  45  74 SE10      30.11F                  
WATERVILLE     FAIR      52  44  74 S7        30.09F                  
BANGOR         PTSUNNY   56  44  64 S14       30.13F                  
GREENVILLE       N/A     48  33  56 SE13      30.05F                  
MILLINOCKET    FAIR      50  33  52 SE7       30.13F                  
HOULTON        NOT AVBL                                               
PRESQUE ISLE   FAIR      50  37  61 SE7       30.09F                  
FRENCHVILLE    CLOUDY    48  36  63 SE8       30.05F                  
CARIBOU        FAIR      50  37  61 S8        30.08F                  
$$

NHZ002-005-008-009-011-012-014-151600-
NEW HAMPSHIRE
  
CITY           SKY/WX    TMP DP  RH WIND       PRES   REMARKS
PORTSMOUTH     LGT RAIN  46  46 100 CALM      30.12F                  
ROCHESTER      LGT RAIN  44  42  93 S3        30.12F                  
NASHUA         LGT RAIN  44  44 100 CALM      30.12F FOG              
MANCHESTER     CLOUDY    43  42  97 CALM      30.11F                  
CONCORD        LGT RAIN  39  39 100 CALM      30.11F FOG              
LACONIA        CLOUDY    44  43  96 CALM      30.10F FOG              
PLYMOUTH       LGT RAIN  37  37 100 CALM      30.10F                  
BERLIN         CLOUDY    39  36  89 CALM      30.03F                  
WHITEFIELD     CLOUDY    43  37  79 W7        30.03F                  
JAFFREY        CLOUDY    48  48 100 S8        30.08F FOG              
KEENE          LGT RAIN  39  39 100 CALM      30.08F FOG              
LEBANON        LGT RAIN  41  38  89 CALM      30.04F FOG              
MT WASHINGTON  FOG       32  32 100 SW32G46     N/A  VSB 0   WCI  17  
$$

VTZ005-007-008-151600-
VERMONT
  
CITY           SKY/WX    TMP DP  RH WIND       PRES   REMARKS
ST JOHNSBURY     N/A     39  36  89 MISG      30.02F                  
MONTPELIER     LGT RAIN  44  41  89 S10       30.03F                  
BURLINGTON     LGT RAIN  48  43  82 S8        29.98F                  
$$

MAZ007-012-024-CTZ003-RIZ002-NYZ038-NYZ072-151600-
SOUTHERN NEW ENGLAND AND NY
  
CITY           SKY/WX    TMP DP  RH WIND       PRES   REMARKS
BOSTON         CLOUDY    54  48  80 S9        30.13F                  
WORCESTER      LGT RAIN  47  46  97 S10       30.10F FOG              
NANTUCKET      CLOUDY    60  54  80 S15       30.17F                  
PROVIDENCE     CLOUDY    52  50  93 CALM      30.14F                  
HARTFORD       LGT RAIN  49  49 100 S5        30.09F FOG              
ALBANY         CLOUDY    53  49  86 S12G22    30.01F                  
NEW YORK CITY  LGT RAIN  63  55  75 S13       30.09F                  
$$

ANZ081-ANZ082-ANZ150-NHZ014-MEZ023>029-151600-
COASTAL MARINE OBSERVATIONS
  
STATION/POSITION TIME  TEMP    WIND        PRES    WAVE
                       AIR SEA DIR/SP/G            HT/PER
                 (UTC) (F)     (DEG/KT/KT) (MB)    (FT/S)
MOUNT DESERT ROC 1500   56     160/ 12/ 12 1021.5F
MATINICUS ROCK   1400   55     180/ 13/ 14 1021.4S
ISLE OF SHOALS   1400   53     200/ 13/ 15 1020.4F
JEFFREYS LEDGE   1406      57                N/A     2/ 3
$$

.............KEY..............
   WCI - WIND CHILL
   TC  - TEMPERATURE IN CELSIUS
   VSB - VISIBILITY IN MILES
   HX  - HEAT INDEX
   FAIR- INDICATES FEW OR NO CLOUDS BELOW 12,000 FT, WITH NO 
         SIGNIFICANT WEATHER AND/OR OBSTRUCTIONS TO VISIBILITY.